[[{"header":{"parameterUnit":"m.s-1","parameterCategory":1,"la1":30.2991,"la2":30.254,"lo1":-89.0895,"lo2":-89.0444,"dy":0.0017,"dx":0.0017,"nx":28,"ny":28,"refTime":"2025-08-25T03:00:00:Z","depth":0,"parameterNumber":2,"parameterNumberName":"U-component_of_WINDS"},"data":[0,0,0,0,0,0,0,0,0,0,0,0,0,0,0,0,0,0,0,0,0,0,0,0,0,0,0,0,0,0,0,0,0,0,0,0,0,0,0,0,0,0,0,0,0,0,0,0,0,0,0,0,0,0,0,0,0,0,-2.0077,-2.0078,0,-2.0132,-2.0133,-2.0133,-2.0102,-2.01,-2.0098,-2.0097,-2.0151,-2.0154,-2.0157,0,0,0,0,0,0,0,0,0,0,0,0,0,-1.9943,-1.9945,-2.0077,-2.0078,-2.0079,-2.0132,-2.0133,-2.0133,-2.0102,-2.01,-2.0098,-2.0096,-2.015,-2.0154,-2.0157,0,0,0,0,0,0,0,0,0,0,0,0,0,-2.0,-1.9946,-2.0077,-2.0069,-2.0069,-2.0132,-2.0133,-2.0134,-2.0102,-2.01,-2.0098,-2.0095,-2.0149,-2.0153,-2.0158,-2.023,0,0,-2.0171,-2.0173,0,0,0,0,0,0,0,0,-1.9996,-2.0005,-2.007,-2.007,-2.007,-2.0108,-2.0105,-2.0166,-2.0103,-2.009,-2.0097,-2.0094,-2.0138,-2.0143,-2.0159,-2.0233,-2.0235,-2.0171,-2.0174,-2.0176,-2.0177,0,0,0,0,0,0,0,-1.9993,-2.0002,-2.0099,-2.0071,-2.0071,-2.0062,-2.0068,-2.0116,-2.0126,-2.0091,-2.0088,-2.0095,-2.0138,-2.0155,-2.016,-2.0236,-2.0171,-2.0175,-2.0177,-2.0179,-2.037,-2.0373,0,0,0,0,0,0,-1.9989,-1.9999,-2.0097,-2.0101,-2.0027,-2.0067,-2.0073,-2.0098,-2.0126,-2.0128,-2.0097,-2.0094,-2.0148,-2.0155,-2.0162,-2.0247,-2.0176,-2.018,-2.0182,-2.0368,-2.0371,-2.0374,0,0,0,0,0,0,-1.9987,-1.9999,-2.0095,-2.0049,-2.0061,-2.0071,-2.01,-2.01,-2.0117,-2.0131,-2.0132,-2.0113,-2.0147,-2.0155,-2.0213,-2.0249,-2.0181,-2.0185,-2.0365,-2.0369,-2.0372,-2.042,0,0,0,0,0,0,-1.9983,-1.9998,-2.0026,-2.005,-2.0063,-2.0147,-2.0102,-2.0103,-2.0125,-2.012,-2.0146,-2.0148,-2.0146,-2.0207,-2.0217,-2.0253,-2.0189,-2.0362,-2.0367,-2.0371,-2.0415,-2.0425,-2.0433,0,0,0,0,0,-1.9978,-2.0037,-2.0028,-2.004,-2.0099,-2.0149,-2.0156,-2.0154,-2.0128,-2.0156,-2.0164,-2.0147,-2.0243,-2.0213,-2.0225,-2.0262,-2.036,-2.0365,-2.0371,-2.0411,-2.0423,-2.0433,0,0,0,0,0,0,-2.0017,-2.004,-2.003,-2.0099,-2.0122,-2.0143,-2.0179,-2.0166,-2.0197,-2.0192,-2.0186,-2.0192,-2.0252,-2.0263,-2.0229,-2.0333,-2.0297,-2.0305,-2.0324,-2.0335,-2.0344,-2.0339,-2.0192,0,0,0,0,0,-2.0034,-2.0073,-2.0091,-2.015,-2.0162,-2.0168,-2.019,-2.0186,-2.0209,-2.0219,-2.0232,-2.0255,-2.029,-2.0313,-2.0347,-2.0417,-2.0421,-2.0448,-2.0457,-2.0464,-2.0471,-2.0507,-2.0519,-2.0392,-2.0392,-2.0392,0,0,-2.0068,-2.0086,-2.0111,-2.0158,-2.0175,-2.0215,-2.0177,-2.0221,-2.0249,-2.0225,-2.028,-2.0291,-2.0316,-2.0379,-2.0408,-2.039,-2.0507,-2.0472,-2.0477,-2.048,-2.0514,-2.0526,-2.0537,-2.0396,-2.0395,-2.0395,0,0,-2.0151,-2.0169,-2.0219,-2.0238,-2.0265,-2.0268,-2.0281,-2.0304,-2.031,-2.0365,-2.0347,-2.0381,-2.0442,-2.046,-2.0478,-2.0566,-2.055,-2.0577,-2.0623,-2.0659,-2.0669,-2.0677,-2.0707,-2.0718,-2.0584,-2.0584,-2.0585,0,-2.019,-2.025,-2.0247,-2.0291,-2.0312,-2.0292,-2.0342,-2.036,-2.0396,-2.041,-2.039,-2.0466,-2.0482,-2.0548,-2.057,-2.0585,-2.0597,-2.0574,-2.0668,-2.0676,-2.0685,-2.0713,-2.0724,-2.0587,-2.0587,-2.0587,-2.0586,0,-2.0296,-2.0337,-2.0374,-2.041,-2.0435,-2.0482,-2.0485,-2.051,-2.0504,-2.0509,-2.0565,-2.0583,-2.0619,-2.0635,-2.0629,-2.07,-2.0688,-2.0668,-2.0632,-2.07,-2.0726,-2.0737,-2.0592,-2.0591,-2.059,-2.0589,0,0,-2.0404,-2.0437,-2.0451,-2.0466,-2.0494,-2.0525,-2.0571,-2.0607,-2.0628,-2.0653,-2.069,-2.0742,-2.0723,-2.0743,-2.0739,-2.077,-2.0837,-2.0746,-2.0746,-2.0761,-2.0915,-2.0929,-2.0941,-2.0827,-2.0829,-2.0831,-2.0912,0,-2.0487,-2.0568,-2.0566,-2.064,-2.0677,-2.0659,-2.0698,-2.0719,-2.0725,-2.0757,-2.0764,-2.08,-2.0773,-2.0785,-2.0815,-2.0823,-2.0868,-2.0817,-2.086,-2.0862,-2.0853,-2.0956,-2.0971,-2.1046,-2.0923,-2.0924,-2.0926,0,-2.0595,-2.0624,-2.0702,-2.0724,-2.0739,-2.0775,-2.0806,-2.0837,-2.086,-2.0862,-2.0884,-2.0875,-2.0919,-2.0883,-2.0943,-2.0909,-2.0926,-2.0933,-2.0936,-2.0938,-2.0897,-2.0959,-2.1071,-2.1081,-2.0942,-2.0941,-2.094,0,-2.0664,-2.0723,-2.0777,-2.0791,-2.0818,-2.0843,-2.0855,-2.0875,-2.0896,-2.0924,-2.0937,-2.097,-2.0987,-2.1012,-2.1011,-2.0984,-2.1072,-2.1035,-2.1073,-2.1073,-2.1091,-2.109,-2.1205,-2.1106,-2.1105,-2.1105,-2.1105,0,-2.0757,-2.0805,-2.0808,-2.0841,-2.0894,-2.0891,-2.0943,-2.0952,-2.097,-2.1004,-2.099,-2.1022,-2.102,-2.1051,-2.1051,-2.11,-2.1109,-2.111,-2.1109,-2.1111,-2.111,-2.1121,-2.1115,-2.1108,-2.1108,-2.1107,-2.1107,0,-2.0842,-2.0847,-2.0904,-2.0925,-2.0931,-2.0968,-2.0985,-2.1016,-2.1021,-2.1063,-2.1073,-2.1081,-2.1117,-2.1119,-2.1161,-2.1161,-2.122,-2.1214,-2.1212,-2.1211,-2.1248,-2.1244,-2.1373,-2.1389,-2.1281,-2.1282,-2.1283,0,-2.09,-2.0936,-2.0961,-2.0982,-2.0996,-2.1031,-2.1052,-2.1051,-2.1073,-2.1101,-2.1128,-2.1163,-2.1191,-2.125,-2.1258,-2.129,-2.1283,-2.1326,-2.1288,-2.1287,-2.1282,-2.1279,-2.1282,-2.1333,-2.1335,-2.1336,-2.1336,0,-2.1002,-2.1002,-2.1033,-2.1066,-2.1091,-2.1117,-2.114,-2.1158,-2.1159,-2.1185,-2.1222,-2.1243,-2.1286,-2.132,-2.1351,-2.1362,-2.1349,-2.1349,-2.1359,-2.136,-2.1356,-2.1357,-2.1231,-2.1345,-2.1344,-2.1344,-2.1343,-2.1343,-2.1074,-2.1105,-2.1126,-2.1161,-2.1179,-2.1201,-2.123,-2.1239,-2.127,-2.1304,-2.1301,-2.1342,-2.1362,-2.1402,-2.1416,-2.1447,-2.1432,-2.1447,-2.1451,-2.1454,-2.1457,-2.1353,-2.1452,-2.1452,-2.1452,-2.1452,-2.1452,0,-2.1173,-2.1186,-2.1218,-2.1251,-2.1278,-2.1265,-2.129,-2.1313,-2.1349,-2.137,-2.1397,-2.1439,-2.1472,-2.1483,-2.1515,-2.1537,-2.1532,-2.1546,-2.1543,-2.1545,-2.1469,-2.1457,-2.1549,-2.1549,-2.1549,-2.1549,-2.1549,-2.1549,-2.1227,-2.1278,-2.1281,-2.134,-2.1352,-2.1392,-2.1407,-2.1427,-2.1443,-2.149,-2.1518,-2.1525,-2.1541,-2.1574,-2.1603,-2.1606,-2.1617,-2.1633,-2.1632,-2.1561,-2.1551,-2.1542,-2.1529,-2.1636,-2.1636,-2.1705,-2.1706,-2.1707]},{"header":{"parameterUnit":"m.s-1","parameterCategory":1,"la1":30.2991,"la2":30.254,"lo1":-89.0895,"lo2":-89.0444,"dy":0.0017,"dx":0.0017,"nx":28,"ny":28,"refTime":"2025-08-25T03:00:00:Z","depth":0,"parameterNumber":3,"parameterNumberName":"V-component_of_WINDS"},"data":[0,0,0,0,0,0,0,0,0,0,0,0,0,0,0,0,0,0,0,0,0,0,0,0,0,0,0,0,0,0,0,0,0,0,0,0,0,0,0,0,0,0,0,0,0,0,0,0,0,0,0,0,0,0,0,0,0,0,-2.2994,-2.2995,0,-2.3066,-2.3067,-2.3068,-2.3076,-2.3075,-2.3074,-2.3074,-2.3144,-2.3147,-2.3149,0,0,0,0,0,0,0,0,0,0,0,0,0,-2.2862,-2.2865,-2.2994,-2.2995,-2.2996,-2.3066,-2.3067,-2.3068,-2.3076,-2.3075,-2.3074,-2.3073,-2.3143,-2.3146,-2.315,0,0,0,0,0,0,0,0,0,0,0,0,0,-2.2925,-2.2866,-2.2994,-2.3009,-2.3011,-2.3066,-2.3067,-2.3068,-2.3076,-2.3075,-2.3074,-2.3073,-2.3142,-2.3146,-2.315,-2.3195,0,0,-2.3162,-2.3163,0,0,0,0,0,0,0,0,-2.2922,-2.293,-2.3006,-2.3008,-2.301,-2.3061,-2.3046,-2.311,-2.3076,-2.3051,-2.3074,-2.3072,-2.3117,-2.3123,-2.3139,-2.3198,-2.3201,-2.3162,-2.3164,-2.3166,-2.3167,0,0,0,0,0,0,0,-2.2917,-2.2927,-2.3023,-2.3007,-2.3009,-2.3011,-2.3018,-2.3058,-2.3089,-2.3053,-2.3054,-2.3062,-2.3118,-2.3135,-2.314,-2.3202,-2.3162,-2.3165,-2.3168,-2.3169,-2.3301,-2.3302,0,0,0,0,0,0,-2.2911,-2.2923,-2.302,-2.3025,-2.2962,-2.3014,-2.3023,-2.3046,-2.3089,-2.3094,-2.3063,-2.3063,-2.3129,-2.3136,-2.3143,-2.3197,-2.3166,-2.3169,-2.3172,-2.3299,-2.3301,-2.3302,0,0,0,0,0,0,-2.2908,-2.2919,-2.3017,-2.2974,-2.2987,-2.3017,-2.3043,-2.3048,-2.3064,-2.3096,-2.3102,-2.3075,-2.3128,-2.3138,-2.3182,-2.32,-2.3171,-2.3175,-2.3298,-2.33,-2.3302,-2.3307,0,0,0,0,0,0,-2.2904,-2.2918,-2.2936,-2.2975,-2.2989,-2.3056,-2.3044,-2.305,-2.3071,-2.3071,-2.3109,-2.3114,-2.3128,-2.3176,-2.3186,-2.3205,-2.3178,-2.3297,-2.3299,-2.3301,-2.3305,-2.3309,-2.3312,0,0,0,0,0,-2.2899,-2.2934,-2.2937,-2.2949,-2.3012,-2.3057,-2.3065,-2.3082,-2.3073,-2.309,-2.3111,-2.3113,-2.3197,-2.318,-2.3191,-2.3212,-2.3295,-2.3298,-2.3301,-2.3304,-2.3308,-2.3312,0,0,0,0,0,0,-2.2896,-2.294,-2.2943,-2.2992,-2.3021,-2.3058,-2.3081,-2.3086,-2.3117,-2.3115,-2.3134,-2.3142,-2.3185,-2.3203,-2.3184,-2.3257,-2.3245,-2.325,-2.3244,-2.3248,-2.3251,-2.3245,-2.3181,0,0,0,0,0,-2.2901,-2.2935,-2.2971,-2.301,-2.3025,-2.305,-2.307,-2.3081,-2.3111,-2.3123,-2.3147,-2.3175,-2.3208,-2.3229,-2.3261,-2.3308,-2.3316,-2.3328,-2.3331,-2.3333,-2.3337,-2.3362,-2.3367,-2.3311,-2.3311,-2.3311,0,0,-2.2912,-2.294,-2.296,-2.301,-2.3034,-2.3067,-2.306,-2.3096,-2.312,-2.3128,-2.3171,-2.319,-2.3223,-2.3268,-2.3289,-2.3284,-2.3354,-2.3337,-2.3338,-2.3341,-2.3365,-2.3371,-2.3375,-2.3313,-2.3313,-2.3312,0,0,-2.2948,-2.2973,-2.3009,-2.3032,-2.3068,-2.3085,-2.3094,-2.3131,-2.3143,-2.3187,-2.3193,-2.3222,-2.3279,-2.3302,-2.3321,-2.3366,-2.3368,-2.3376,-2.3392,-2.3416,-2.3421,-2.3425,-2.344,-2.3445,-2.338,-2.338,-2.338,0,-2.2957,-2.3008,-2.3026,-2.3061,-2.3083,-2.3092,-2.3127,-2.3149,-2.3194,-2.3208,-2.3202,-2.3272,-2.3295,-2.3346,-2.3357,-2.3373,-2.3382,-2.3371,-2.3419,-2.3423,-2.3427,-2.3441,-2.3447,-2.338,-2.338,-2.338,-2.338,0,-2.3015,-2.3051,-2.3075,-2.3118,-2.3142,-2.3177,-2.32,-2.3223,-2.3231,-2.3248,-2.3292,-2.332,-2.3357,-2.3371,-2.3379,-2.3422,-2.3418,-2.3415,-2.3403,-2.3433,-2.3446,-2.3452,-2.3381,-2.3381,-2.3381,-2.3381,0,0,-2.3051,-2.3104,-2.3112,-2.3132,-2.3172,-2.3199,-2.3234,-2.3272,-2.329,-2.332,-2.335,-2.3397,-2.3395,-2.3417,-2.3428,-2.3449,-2.3482,-2.3444,-2.3445,-2.3449,-2.353,-2.3531,-2.3537,-2.3484,-2.3485,-2.3486,-2.3527,0,-2.3091,-2.3154,-2.3172,-2.3225,-2.3257,-2.3267,-2.3297,-2.3325,-2.3342,-2.3371,-2.339,-2.3423,-2.3418,-2.3431,-2.3453,-2.3473,-2.3498,-2.347,-2.351,-2.3511,-2.35,-2.3544,-2.3545,-2.3582,-2.3532,-2.3533,-2.3534,0,-2.3145,-2.3177,-2.3234,-2.327,-2.3284,-2.3311,-2.3346,-2.3375,-2.3406,-2.3417,-2.3441,-2.345,-2.3486,-2.3473,-2.3523,-2.3504,-2.3521,-2.3533,-2.3535,-2.3538,-2.3523,-2.3547,-2.3595,-2.36,-2.3543,-2.3542,-2.3541,0,-2.3164,-2.3221,-2.3262,-2.3279,-2.3322,-2.3341,-2.3359,-2.339,-2.3411,-2.3442,-2.3455,-2.349,-2.3508,-2.3534,-2.3552,-2.3541,-2.3599,-2.3588,-2.3608,-2.3608,-2.3619,-2.3618,-2.3668,-2.3632,-2.3632,-2.3632,-2.3632,0,-2.3206,-2.324,-2.3271,-2.3296,-2.3334,-2.3354,-2.3391,-2.341,-2.3437,-2.3465,-2.3476,-2.3502,-2.3524,-2.3553,-2.3567,-2.3605,-2.3614,-2.3623,-2.3626,-2.3621,-2.362,-2.3632,-2.3629,-2.3634,-2.3633,-2.3633,-2.3633,0,-2.3232,-2.3255,-2.33,-2.3338,-2.3348,-2.3374,-2.3406,-2.343,-2.3448,-2.3483,-2.3493,-2.352,-2.3555,-2.3576,-2.362,-2.3629,-2.3671,-2.3673,-2.366,-2.3661,-2.368,-2.3677,-2.3739,-2.3747,-2.3707,-2.3707,-2.3707,0,-2.3257,-2.3283,-2.3324,-2.3344,-2.3363,-2.3395,-2.3417,-2.3437,-2.3459,-2.3497,-2.3516,-2.3552,-2.3581,-2.3636,-2.3659,-2.3693,-2.3695,-2.3715,-2.37,-2.3695,-2.3694,-2.3692,-2.3694,-2.3717,-2.3717,-2.3717,-2.3718,0,-2.3297,-2.3307,-2.3339,-2.3374,-2.34,-2.3429,-2.3457,-2.3473,-2.3498,-2.3522,-2.3558,-2.3581,-2.3626,-2.366,-2.3696,-2.3714,-2.372,-2.3722,-2.3728,-2.3723,-2.3714,-2.3718,-2.3665,-2.372,-2.372,-2.372,-2.372,-2.372,-2.3323,-2.3347,-2.3379,-2.3413,-2.3437,-2.3463,-2.3488,-2.3509,-2.3539,-2.3578,-2.3588,-2.3625,-2.3655,-2.3704,-2.3723,-2.3752,-2.3749,-2.3758,-2.376,-2.3762,-2.3761,-2.371,-2.3759,-2.3759,-2.3758,-2.3758,-2.3758,0,-2.3363,-2.3384,-2.3416,-2.3456,-2.3483,-2.3487,-2.3518,-2.354,-2.3573,-2.3601,-2.363,-2.3671,-2.3705,-2.3731,-2.3766,-2.3784,-2.3787,-2.3792,-2.379,-2.3794,-2.3763,-2.3754,-2.3789,-2.3789,-2.3789,-2.3789,-2.3789,-2.3789,-2.3387,-2.3427,-2.3441,-2.3492,-2.3513,-2.355,-2.3568,-2.3592,-2.3614,-2.366,-2.3688,-2.3705,-2.3733,-2.3769,-2.38,-2.3807,-2.3818,-2.3822,-2.3829,-2.38,-2.3796,-2.3793,-2.3784,-2.3825,-2.3825,-2.3858,-2.3858,-2.3859]}]]